Погода в Сантьяго Сити

Филиппины     16°41′21″N   121°32′37″E
темп.,
°C
ветер,
м/с
пор.,
м/с
влажн.,
%
обл.,
%
осадки,
мм/ч
давл.,
гПа
погр.,
м
23 января, сб
сб2323:00+23вюв1195100 2.1 101029
02:00+23ю1298100 2.2 100985
05:00+22ю1297100 0.0 100942
08:00+24ююв129599 0.0 1011210
11:00+26всв228684 1.9 1011521
14:00+28св227886 0.4 1009670
17:00+24св2696100 8.7 1010258
20:00+23ссз2798100 35.6 1012315
24 января, вс
вс2423:00+22вюв1197100 0.1 101236
02:00+22вюв0197100 0.1 101149
05:00+23юв119798 0.1 101128
08:00+23всв019699 0.3 101383
11:00+24св1291100 0.9 1013303
14:00+24ссв369297 0.4 1012454
17:00+24ссв3692100 1.7 1012400
20:00+22ссв1295100 1.9 101474
25 января, пн
пн2523:00+22юв119383 0.1 101433
02:00+21ююв119690 0.3 101352
05:00+21ю129996 1.1 101384
08:00+23зюз119370 0.0 1015157
11:00+23юв1194100 0.3 1014173
14:00+27всв227652 2.6 1012522
17:00+26св24894 5.8 1012208
20:00+22св019695 0.3 101323
26 января, вт
вт2623:00+22сз119683 0.0 101323
02:00+21юв119428 0.1 101225
05:00+20ююз119538 0.0 101224
08:00+22вюв0198100 11.3 101367
11:00+22зюз1499100 14.9 1013268
14:00+27св347991 0.9 1011622
17:00+24ссв369175 3.6 1011222
20:00+21ююз1199100 61.4 101352
27 января, ср
ср2723:00+22с119262 0.2 101325
02:00+21ссв1198100 2.6 101234
05:00+21св009566 0.0 101223
08:00+22всв009278 0.1 1014144
11:00+22зсз0195100 0.5 1014117
14:00+27св237029 0.1 1011992
17:00+26св248293 0.8 1011183
20:00+21св1195100 0.3 101350